Regional Weather Roundup
Issued by NWS

Home | Current Version | Previous Version | Graphics & Text | Print | Product List | Glossary On
Versions: 1 2 3 4 5 6 7 8 9 10 11 12 13 14 15 16 17 18 19 20 21 22 23 24 25 26 27
000
ASUS45 KTFX 190910
RWRMT
MONTANA REGIONAL WEATHER ROUNDUP
NATIONAL WEATHER SERVICE GREAT FALLS MT
300 AM MDT THU OCT 19 2017

NOTE: "FAIR" INDICATES FEW OR NO CLOUDS BELOW 12000 FEET WITH NO
SIGNIFICANT WEATHER AND/OR OBSTRUCTIONS TO VISIBILITY.

MTZ001>007-043-191000-
WEST OF THE DIVIDE

CITY           SKY/WX    TMP DP  RH WIND       PRES   REMARKS
KALISPELL      CLOUDY    52  41  66 SW7       29.68F
MISSOULA       CLEAR     41  36  82 S5        29.78S
BUTTE          CLOUDY    36  27  69 CALM      29.91F
MULLAN PASS    CLOUDY    45  26  47 SW12G20   29.78F
ANACONDA         N/A     52  21  30 S17G23    29.86S
DEER LODGE       N/A     48  25  40 S6        29.86F
EUREKA           N/A     59  36  41 MISG      29.61F
HAMILTON         N/A     57  23  26 S14       29.78F
LIBBY            N/A     63  30  29 S7G24     29.61S
$$

MTZ008-052>055-191000-
SOUTHWEST MONTANA

CITY           SKY/WX    TMP DP  RH WIND       PRES   REMARKS
BOZEMAN        CLOUDY    37  30  75 SE10      29.89S WCI  30
DILLON         CLOUDY    48  22  35 CALM      29.93S
W YELLOWSTONE  CLOUDY    28  21  74 CALM      30.10S
ENNIS          CLOUDY    57  19  23 S24G32    29.99F
THREE FORKS      N/A     61  20  20 S20       29.86F
$$

MTZ009-010-012-014-046-048-049-054-191000-
EAST SLOPES AND CENTRAL MONTANA

CITY           SKY/WX    TMP DP  RH WIND       PRES   REMARKS
CUT BANK       CLOUDY    57  24  28 SW24G36   29.60S
GREAT FALLS    CLOUDY    61  20  20 SW18G29   29.69F
MALMSTROM AFB  CLOUDY    55  25  31 SW21      29.69F
HELENA         CLOUDY    44  33  65 NW5       29.78F
BOWMANS CRNR     N/A     55  21  26 S25       29.69F
CHOTEAU          N/A     59  19  21 SW14      29.68R
FAIRFIELD        N/A     56  24  29 S20       29.68R
POWER            N/A     56  23  28 SW17G23   29.67F
RAYNESFORD       N/A     62  21  20 SW10G20   29.73S
ULM              N/A     60  21  22 SW8       29.71F
$$

MTZ011-013-016-021-045-047-050-051-191000-
NORTH CENTRAL MONTANA

CITY           SKY/WX    TMP DP  RH WIND       PRES   REMARKS
HAVRE          CLOUDY    62  32  32 SW17      29.61F
LEWISTOWN      CLOUDY    60  27  28 SW14      29.76S
N BAR RANCH      N/A     50  27  40 E3        29.82S
CHINOOK          N/A     55  34  44 W5        29.62F
DENTON           N/A     52  29  41 S12       29.70S
GEYSER           N/A     58  23  26 SW14      29.73F
GRASS RANGE      N/A     60  27  28 W6        29.73S
JUDITH GAP       N/A     54  27  34 S18G24    29.82R
WINIFRED         N/A     58  28  31 SW15G21   29.71S
$$

MTZ017>020-022>027-061-062-191000-
NORTHEAST MONTANA

CITY           SKY/WX    TMP DP  RH WIND       PRES   REMARKS
GLASGOW        CLOUDY    44  35  70 SE10      29.68F
JORDAN           N/A     51  31  46 W3        29.72F
SIDNEY         PTCLDY    36  30  79 S3        29.76F
WOLF POINT     CLOUDY    36  27  69 CALM      29.71F
MALTA          CLEAR     46  34  61 W6        29.65F
PLENTYWOOD       N/A     43  25  49 CALM      29.72S
POPLAR           N/A     45  25  45 N5        29.72F
$$

MTZ028>42-056>058-191000-
SOUTHCENTRAL AND SOUTHEAST MONTANA

CITY           SKY/WX    TMP DP  RH WIND       PRES   REMARKS
BAKER          CLOUDY    39  29  67 CALM      29.82F
BILLINGS       CLOUDY    58  27  30 SW10      29.83S
LIVINGSTON     CLOUDY    60  22  23 SW28G38   29.85S
MILES CITY     CLOUDY    45  33  63 SE12      29.78F
BIG TIMBER     CLEAR     59  21  23 W20       29.86F
FORSYTH          N/A     45  30  57 CALM      29.78R
HARLOWTON        N/A     51  28  40 MISG      29.83S
LAUREL           N/A     55  25  30 SW14      29.83F
$$

REGIONAL REPORTS...DAKOTAS

CITY           SKY/WX    TMP DP  RH WIND       PRES   REMARKS
WILLISTON      CLOUDY    45  28  51 S7        29.75F
MINOT          CLOUDY    37  29  72 SE6       29.78F
DICKINSON      CLOUDY    42  26  53 S10       29.79F
BEACH            N/A     41  27  56 S8        29.82F
CROSBY           N/A     43  27  52 S15       29.73S
WATFORD CITY     N/A     36  27  69 CALM      29.76F
BISMARCK       CLOUDY    40  28  62 E7        29.86F
GRAND FORKS    CLOUDY    35  26  69 SW6       29.90F WCI  30
FARGO          PTCLDY    39  28  64 S8        29.94F
BUFFALO SD       N/A     46  26  45 CALM      29.78F
RAPID CITY     CLOUDY    49  29  46 S12       29.91F
$$

REGIONAL REPORTS...WYOMING/IDAHO/WASHINGTON

CITY           SKY/WX    TMP DP  RH WIND       PRES   REMARKS
GILLETTE       CLOUDY    55  19  24 SW16      29.91R
SHERIDAN       CLOUDY    42  27  55 NW7       29.88S
BUFFALO WY     CLOUDY    54  15  21 W8        29.94S
CODY           CLOUDY    57  21  24 VRB5      29.98S
YELLOWSTONE LA   N/A     27  23  85 CALM      30.17F
IDAHO FALLS    CLOUDY    34  28  79 N5        30.03S
SALMON         CLOUDY    36  28  73 CALM      29.91F
BOISE          CLEAR     52  29  41 SE13      29.85F
SPOKANE        CLOUDY    55  42  61 S14       29.65R
$$

REGIONAL REPORTS...ALBERTA

CITY           SKY/WX    TMP DP  RH WIND       PRES   REMARKS
EDMONTON       CLEAR     39  28  65 S7        29.28R
CALGARY        MOCLDY    46  32  57 SW5       29.31F
LETHBRIDGE     CLEAR     55  36  47 SW26G39   29.47R
MEDICINE HAT   CLOUDY    59  37  44 SW24G31   29.51R
$$

REGIONAL REPORTS...SASKATCHEWAN

CITY           SKY/WX    TMP DP  RH WIND       PRES   REMARKS
SWIFT CURRENT  MOCLDY    55  37  50 SW25G31   29.53S
REGINA         MOCLDY    36  19  51 SE13      29.63F WCI  27
SASKATOON      CLOUDY    41  21  45 SE15G21   29.51F
$$




USA.gov is the U.S. government's official web portal to all federal, state and local government web resources and services.